Home > Weather > Sisimiut > Past weeks

Flag for Greenland Past Weather in Sisimiut, Greenland — Yesterday and Last 2 Weeks

Now
32 °F

Chilly.


Feels Like: 21 °F
Forecast: N/A
Wind: 16 mph from North

Location: Attu Kitsissut

Current Time: May 28, 2016 at 8:22:12 PM

Latest Report: May 28, 2016 at 7:00 PM


Visibility: N/A

Pressure: 29.98 "Hg

Humidity: 78%

Dew Point: 26 °F

Location of SisimiutLocation

Past Weather in Sisimiut — Graph

°F

Sisimiut Temperature Yesterday

Maximum temperature yesterday: 31 °F (at 3:00 PM)
Minimum temperature yesterday: 29 °F (at 4:00 AM)
Average temperature yesterday: 30 °F

High & Low Weather Summary for the Past Weeks

 TemperatureHumidityPressure
High34 °F (May 20, 1:00 PM)100% (May 13, 9:00 PM)30.20 "Hg (May 13, 9:00 PM)
Low28 °F (May 18, 9:00 AM)68% (May 27, 2:00 PM)29.29 "Hg (May 20, 10:00 AM)
Average31 °F89%29.78 "Hg
* Reported May 13 7:00 PM — May 28 7:00 PM, Sisimiut, Weather by CustomWeather, © 2016

Note: Actual official high and low records may vary slightly from our data, if they occured in-between our weather recording intervals... More about our weather records

Advertising

Sisimiut Weather History for the Previous 24 Hours

Scroll right to see more
 ConditionsComfort  
Time TempWeatherWind HumidityBarometerVisibility
7:00 PM
Sat, May 28
32 °FChilly.16 mph78%29.98 "HgN/A
6:00 PM32 °FChilly.17 mph76%29.99 "HgN/A
5:00 PM32 °FChilly.17 mph74%29.99 "HgN/A
4:00 PM32 °FChilly.18 mph69%29.99 "HgN/A
3:00 PM32 °FChilly.15 mph74%29.99 "HgN/A
1:00 PM32 °FChilly.12 mph74%30.00 "HgN/A
12:00 PM31 °FChilly.12 mph74%30.00 "HgN/A
11:00 AM31 °FChilly.9 mph71%30.00 "HgN/A
10:00 AM31 °FChilly.9 mph69%30.00 "HgN/A
9:00 AM31 °FChilly.8 mph70%30.00 "HgN/A
8:00 AM30 °FChilly.6 mph69%30.00 "HgN/A
7:00 AM30 °FChilly.7 mph71%29.99 "HgN/A
6:00 AM30 °FChilly.5 mph71%29.99 "HgN/A
5:00 AM29 °FChilly.7 mph76%29.98 "HgN/A
4:00 AM29 °FChilly.2 mph76%29.98 "HgN/A
3:00 AM29 °FChilly.5 mph76%29.97 "HgN/A
2:00 AM29 °FChilly.6 mph76%29.97 "HgN/A
1:00 AM29 °FChilly.10 mph76%29.96 "HgN/A
12:00 AM30 °FChilly.12 mph75%29.95 "HgN/A
11:00 PM
Fri, May 27
30 °FChilly.10 mph72%29.94 "HgN/A
10:00 PM30 °FChilly.10 mph74%29.93 "HgN/A
9:00 PM30 °FChilly.12 mph75%29.93 "HgN/A
8:00 PM29 °FChilly.14 mph80%29.91 "HgN/A
Weather by CustomWeather, © 2016

See weather overviewHow to use our weather pages